RH
81 77 71 85 92 94 96 95 78 76 83 50 37 34 32 29 24 22 21 21 22 23 25 27 33 32 39 49 32 29 30 32 33 36 43 50 55 64 76 70 57 45 40 39 35 42 46
54 52 41 49 48 65 73 77 66 52 39 55 35 30 25 23 23 22 20 20 24 23 25 26 34 33 48 40 25 29 30 31 32 35 42 44 58 56 67 64 60 43 46 44 40 44 45
40 30 38 48 32 28 31 43 42 32 35 34 30 25 23 23 24 26 25 24 22 22 22 27 33 46 52 45 24 27 28 30 31 34 43 39 48 59 64 71 48 49 56 49 42 38 42
31 28 26 32 33 28 25 29 33 30 32 31 30 25 25 26 27 26 24 24 19 19 19 28 33 53 56 26 24 26 28 29 29 31 34 39 44 54 57 55 64 64 48 62 42 39 34
24 24 23 24 29 27 24 26 35 28 32 29 26 26 27 28 26 25 23 22 21 18 21 30 42 47 44 22 27 25 28 31 30 30 33 37 41 54 50 68 74 47 64 67 47 36 30
22 24 26 25 26 26 25 23 33 30 30 31 31 30 29 28 28 25 22 29 23 21 32 35 40 34 26 30 29 27 29 28 34 38 40 48 57 56 57 64 78 66 54 46 50 32 31
31 25 26 25 26 27 24 23 25 32 30 30 30 29 29 28 27 27 24 30 39 45 32 30 27 30 32 26 27 30 28 29 33 36 46 41 62 62 54 50 51 48 43 44 40 33 30
26 27 26 26 24 25 24 22 22 21 25 28 29 29 27 27 28 28 28 57 64 64 62 38 30 31 28 33 42 34 26 39 40 47 44 52 52 44 44 44 44 44 49 52 43 39 36
34 26 27 28 28 24 24 22 20 20 19 18 17 20 28 29 35 43 37 52 51 62 74 45 32 26 30 33 40 37 34 42 40 43 46 50 41 40 46 45 49 48 52 55 55 46 39
41 27 24 26 26 25 24 22 20 18 17 16 15 16 25 27 40 49 56 46 51 59 65 36 28 31 29 33 39 30 32 38 42 41 45 51 38 45 52 40 49 59 45 50 54 56 62
23 23 25 26 24 27 26 23 21 20 18 16 15 16 25 34 40 51 44 44 50 59 37 29 26 24 28 30 28 29 33 38 44 39 43 42 40 46 54 44 46 53 47 51 52 54 52
36 26 22 25 28 31 31 26 22 21 20 18 16 15 18 34 54 52 44 50 58 65 36 26 24 26 28 34 30 27 35 36 36 42 43 46 36 45 44 45 46 43 50 54 53 62 80
57 48 32 25 39 31 39 38 30 24 22 20 18 17 25 37 51 45 51 62 63 54 19 22 21 28 29 32 26 26 27 35 35 41 38 38 37 35 40 46 43 54 69 82 72 80 73
54 33 33 32 27 37 37 45 36 27 25 22 19 20 34 40 48 43 60 48 27 22 20 26 26 29 31 25 25 24 26 38 32 32 45 54 46 34 32 44 53 59 56 80 69 69 64
75 58 36 41 32 34 49 46 31 29 26 22 22 43 58 56 48 50 64 59 35 29 27 29 26 26 25 28 28 25 23 34 34 31 29 48 33 29 36 40 42 39 57 42 60 60 63
80 56 45 42 48 51 55 50 42 32 24 22 28 51 64 58 46 60 55 46 32 29 32 30 25 20 22 19 22 23 20 27 39 31 31 34 48 32 31 38 44 43 44 51 68 62 65
68 54 42 43 46 61 56 54 50 41 29 24 50 45 64 48 45 66 53 56 31 29 34 32 29 25 21 22 22 21 18 28 28 35 30 33 38 38 27 36 38 44 51 44 49 58 64
76 64 46 49 68 54 58 62 58 55 36 38 46 35 55 48 52 71 57 36 33 30 36 39 34 32 28 26 26 24 19 26 29 32 35 33 39 45 28 33 35 35 37 40 58 47 52
87 65 53 56 67 61 63 63 64 63 52 42 54 53 59 55 33 55 41 31 30 33 37 38 36 33 30 31 27 26 26 33 32 34 37 34 32 39 36 27 28 33 33 38 39 54 61
91 67 56 70 72 64 68 67 68 66 61 44 59 49 70 73 64 43 33 32 32 36 37 31 34 30 32 36 34 33 26 28 31 38 45 35 42 32 39 25 34 40 37 34 35 67 47
88 70 76 76 74 70 70 70 70 67 65 46 65 43 52 45 59 49 43 41 37 30 38 33 34 35 35 37 33 28 28 26 30 41 43 44 58 50 45 42 44 42 42 40 52 42 47
86 82 79 77 77 75 73 72 71 67 62 53 67 59 64 54 41 38 41 37 35 36 30 32 38 38 33 37 33 37 37 32 32 39 50 54 60 50 58 45 45 46 36 33 38 36 40
88 83 82 77 78 76 74 77 75 74 66 67 65 61 52 38 40 36 37 37 38 36 30 32 33 31 34 34 35 38 40 40 38 37 51 50 67 62 54 41 40 40 33 30 27 32 34
86 89 83 84 82 75 78 76 76 75 70 76 74 70 62 34 36 35 34 34 36 34 36 34 30 29 29 43 39 39 43 39 35 34 36 37 48 46 54 42 64 35 30 27 28 30 42
94 89 85 81 76 78 79 78 79 74 73 74 61 70 70 53 40 31 36 35 38 44 45 38 32 30 46 43 52 62 56 44 37 47 41 34 41 49 51 61 44 35 30 36 35 42 44
97 86 85 77 78 82 80 79 77 77 76 78 76 70 72 70 62 41 58 60 74 70 61 47 41 44 46 61 65 69 71 52 58 46 60 50 43 50 59 61 59 37 40 38 39 59 77
90 89 79 82 84 81 82 79 80 79 78 78 88 75 75 86 79 62 76 73 54 56 73 69 66 67 52 71 74 78 79 52 67 61 61 72 69 65 60 71 59 74 58 47 53 89 89
93 80 84 88 86 85 85 81 81 82 81 81 93 89 77 90 88 71 67 77 82 78 90 77 86 81 82 84 82 79 80 65 61 63 55 56 68 77 72 74 80 68 74 82 96 83 71
86 86 88 86 88 89 84 83 84 85 87 87 99 98 96 92 92 87 85 82 83 80 86 84 92 83 83 98 98 98 97 89 82 81 56 71 59 71 58 67 67 59 66 61 64 73 67
Wind_Speed
6 8 9 10 12 12 12 11 11 10 9 9 9 10 10 10 10 11 12 13 14 16 17 17 16 17 9 4 3 12 15 14 14 12 11 8 4 5 5 7 8 6 4 8 11 6 6
6 8 9 10 12 12 13 12 11 10 10 10 10 10 10 10 10 11 11 13 15 15 16 15 14 14 4 3 9 10 14 13 15 9 6 7 4 6 6 6 7 5 7 11 9 6 6
6 7 8 10 11 13 14 13 11 10 10 10 11 11 11 11 12 12 13 14 16 15 14 11 10 9 3 6 10 12 13 14 12 10 4 6 6 3 5 7 4 8 8 9 12 6 5
5 7 8 9 10 12 14 15 10 10 11 11 11 12 12 13 14 16 16 17 16 13 10 8 6 3 5 7 8 17 15 14 16 10 10 9 5 3 3 6 8 4 3 5 6 6 6
4 6 7 8 9 11 13 15 12 9 11 12 12 13 14 15 17 17 18 17 13 8 5 5 2 1 7 7 11 17 12 10 19 10 7 9 1 3 5 4 5 4 6 6 7 6 4
4 5 7 8 8 10 11 13 13 10 10 11 13 14 16 17 18 18 18 13 4 3 2 2 5 3 3 6 17 13 9 16 8 8 6 3 2 2 4 5 4 7 7 4 5 4 2
5 5 6 7 8 9 10 12 13 12 11 12 13 14 16 18 15 17 18 3 7 3 4 1 3 3 6 16 7 5 14 12 6 4 5 3 7 5 9 6 8 7 4 6 4 6 3
5 5 5 5 6 8 9 10 12 12 13 13 14 14 15 17 11 15 11 6 3 1 6 6 4 5 11 3 4 6 15 5 5 4 7 7 3 7 8 7 8 7 5 6 5 10 6
7 6 6 6 7 7 8 9 10 12 13 14 15 15 14 15 6 9 15 6 2 1 1 5 4 3 5 2 4 5 5 5 2 5 5 1 5 7 7 5 11 5 4 5 5 10 4
9 7 6 6 7 8 9 9 10 11 13 15 16 15 14 13 2 5 3 6 3 1 4 2 2 2 2 2 4 1 2 1 5 5 6 4 4 6 8 3 5 5 3 5 6 6 2
11 9 7 5 6 7 8 8 9 10 11 12 15 14 11 9 4 3 5 6 2 1 4 2 2 1 1 1 4 2 1 2 4 4 4 6 4 5 4 5 4 8 8 10 4 3 3
13 10 7 7 6 7 9 9 9 10 11 13 14 12 9 5 3 3 6 4 1 5 4 3 0 3 3 2 2 4 1 2 4 4 2 7 1 2 2 10 3 7 6 5 3 2 3
14 11 9 7 7 7 8 10 11 11 13 13 13 12 7 4 0 7 6 2 4 4 1 2 3 2 3 3 4 1 2 4 3 6 6 7 3 1 1 6 6 9 7 4 6 5 2
15 13 12 8 7 7 8 10 11 12 12 13 15 11 6 4 5 4 3 4 1 3 1 2 3 3 3 1 2 3 2 0 3 3 1 3 8 5 5 2 3 5 3 4 2 3 5
18 15 12 10 8 6 7 8 9 11 13 14 13 6 3 2 3 2 3 3 6 2 1 5 7 2 1 2 1 5 2 3 2 2 2 5 6 3 2 1 2 7 5 1 1 2 1
20 15 13 9 9 7 7 7 10 11 11 12 9 4 2 3 0 3 3 5 3 1 2 0 1 1 3 4 1 4 3 1 3 1 3 1 5 3 3 1 2 1 4 4 3 4 4
21 17 14 13 9 7 7 7 9 11 11 10 3 3 1 1 1 4 3 6 2 1 1 1 2 4 3 3 2 3 3 1 2 3 1 1 2 7 4 0 3 2 2 2 1 3 2
24 19 18 13 10 9 7 7 8 11 11 3 2 1 0 1 2 0 2 2 0 1 0 2 1 3 3 3 3 3 3 1 2 2 3 2 3 3 9 4 3 1 1 3 3 5 1
27 21 19 15 14 8 6 5 7 9 10 5 0 2 0 1 1 2 4 2 1 1 3 2 3 4 2 2 3 3 4 3 3 3 2 0 2 4 8 5 3 1 3 3 1 2 5
27 23 19 17 14 9 7 4 6 8 7 3 2 3 3 3 2 2 2 3 2 0 3 1 2 3 2 2 5 5 2 2 4 5 7 3 3 7 6 8 1 7 5 4 6 3 5
28 23 20 19 15 11 7 4 4 5 6 1 2 3 2 2 3 2 2 3 1 2 2 1 3 3 1 3 5 5 2 5 3 3 4 5 6 4 5 6 7 12 16 11 10 12 9
29 24 21 19 15 12 9 6 3 1 3 2 2 2 3 2 0 0 2 2 2 3 2 2 2 5 2 4 4 8 3 2 7 3 4 3 4 4 7 6 10 15 16 18 12 11 13
28 25 22 18 16 13 11 8 5 2 1 2 2 2 4 3 0 2 2 2 2 2 3 2 3 3 5 5 3 7 8 8 9 7 6 4 4 1 8 3 4 13 5 3 4 4 5
28 24 22 20 17 15 12 9 7 3 3 4 2 2 3 4 3 3 2 1 4 2 3 4 4 3 2 6 6 6 7 13 15 17 10 5 5 4 4 0 4 8 5 7 7 3 6
28 25 23 21 18 16 12 9 8 7 5 4 2 2 3 2 2 1 1 2 6 5 4 6 4 2 1 4 3 6 5 4 6 1 5 14 4 3 3 3 6 9 5 1 4 5 16
27 25 23 20 20 17 13 11 9 8 8 5 4 2 2 3 2 2 1 2 3 2 5 3 4 1 2 1 1 3 3 3 5 3 5 4 3 4 2 3 4 4 8 6 1 5 18
28 25 24 21 20 18 15 12 9 7 5 5 4 3 2 1 3 0 2 2 1 1 2 4 3 4 1 1 3 4 4 4 3 3 1 1 1 5 8 4 6 12 12 8 4 7 17
29 26 24 23 20 17 15 14 10 7 6 4 2 2 2 1 4 1 2 2 5 2 3 1 3 1 1 2 2 3 2 2 3 5 3 2 2 4 1 3 6 16 8 6 7 10 14
28 27 24 22 20 18 16 13 11 9 8 8 4 5 6 3 3 5 7 9 8 5 1 3 3 2 2 2 1 2 3 4 5 7 5 7 2 1 2 0 7 10 11 10 11 13 16
Wind_Direction
34 29 23 22 17 14 13 8 7 6 6 13 7 356 346 340 335 330 327 326 330 332 336 341 344 349 0 351 287 327 326 340 341 339 339 330 353 343 354 299 317 291 301 318 292 261 234
28 26 25 26 22 21 14 8 9 12 11 4 2 357 355 350 344 333 329 326 326 327 331 336 342 351 356 354 325 331 330 334 337 323 307 338 328 320 283 291 304 296 313 298 297 244 247
21 25 23 18 24 21 19 18 16 18 15 7 6 7 7 1 348 338 329 325 322 322 325 332 338 354 327 235 342 342 338 329 327 317 267 294 314 21 311 299 303 315 295 301 280 261 239
6 12 18 18 17 18 16 16 19 25 19 11 10 4 2 354 344 335 328 323 317 312 314 328 328 2 255 270 336 341 331 330 328 324 266 279 272 255 213 259 341 330 40 337 281 226 249
348 5 9 15 15 15 16 14 16 21 22 18 12 6 356 348 342 337 332 322 313 309 302 321 337 22 292 319 334 330 318 309 319 314 252 263 18 257 308 1 347 0 304 298 306 196 204
334 351 1 5 9 9 10 16 21 16 10 13 11 5 359 350 346 343 341 325 336 333 322 314 288 350 290 309 320 313 324 316 277 311 340 83 49 3 7 40 321 291 318 296 4 345 136
307 340 351 355 359 360 5 10 15 13 7 357 355 356 357 354 353 355 352 16 14 9 6 203 286 248 291 317 314 312 342 330 347 42 9 319 52 349 292 283 267 265 331 360 300 358 298
286 306 322 339 349 353 359 1 6 10 6 2 354 350 351 355 4 16 19 64 111 223 319 303 261 271 278 339 305 319 353 42 3 344 1 13 356 302 310 329 6 26 17 344 310 337 327
267 282 308 329 341 348 349 352 355 357 357 356 355 351 350 350 9 23 54 53 40 113 242 293 224 256 282 20 302 292 27 341 321 354 348 38 287 334 355 4 0 325 14 327 292 318 319
261 273 289 314 330 334 338 350 351 351 352 349 351 352 352 356 71 16 54 360 5 131 64 260 261 274 241 226 287 262 53 98 344 325 346 267 313 352 334 348 30 310 306 324 322 13 316
255 264 283 299 310 319 324 334 339 343 346 347 348 353 357 19 347 44 333 333 333 233 28 243 224 253 316 272 298 303 129 85 301 296 64 270 319 346 325 307 349 253 306 293 266 308 10
250 254 264 283 299 311 317 322 334 337 341 343 344 345 356 9 353 347 333 327 250 42 266 351 288 317 360 214 239 301 123 56 272 321 249 255 336 174 258 306 266 300 320 3 61 57 40
246 245 247 255 280 298 314 321 329 335 338 337 337 335 345 333 313 323 322 77 27 122 303 322 310 340 1 279 311 206 306 15 39 15 345 326 328 294 316 343 346 13 23 357 9 14 228
243 240 238 245 264 286 308 318 328 331 332 334 329 326 323 313 309 329 321 53 185 245 2 331 255 290 190 347 259 291 309 149 21 54 321 39 332 359 344 124 276 313 75 117 351 343 287
239 228 235 239 248 265 289 302 316 324 331 334 325 323 324 351 328 349 68 69 218 227 323 354 323 292 265 283 305 8 293 144 123 60 73 11 291 318 253 313 70 326 29 177 245 287 347
234 228 228 239 247 258 274 297 315 321 329 331 323 317 257 338 12 71 81 232 238 319 340 236 259 288 317 297 303 15 305 158 147 124 116 289 301 282 311 356 326 130 290 22 12 356 315
227 228 231 230 240 252 272 295 318 328 333 329 2 345 7 8 105 58 200 229 290 48 7 212 284 307 299 311 311 275 266 85 98 196 124 283 145 292 348 351 263 357 5 3 148 148 239
228 225 222 228 228 236 259 303 326 339 341 319 8 315 108 131 35 166 240 252 323 305 248 287 197 230 253 317 300 284 258 120 81 107 312 209 177 263 266 311 348 112 103 108 112 297 261
225 219 215 227 225 224 247 282 321 335 355 328 107 262 123 173 199 256 274 260 245 205 251 178 273 222 39 294 311 250 310 219 152 129 190 256 289 326 333 350 358 63 207 190 136 100 212
220 214 215 224 219 205 226 261 310 321 340 340 55 332 332 35 220 207 288 280 211 208 271 242 279 21 339 279 231 280 270 230 204 196 163 124 218 195 212 236 262 283 259 232 194 185 250
212 215 218 217 206 199 207 228 299 330 328 357 82 260 223 275 277 248 346 310 310 283 202 308 319 232 233 292 330 256 322 331 278 251 176 163 224 239 248 262 283 277 281 268 213 228 206
208 213 209 206 201 196 196 207 229 241 315 170 133 94 341 270 282 43 252 260 303 333 321 321 200 315 334 234 237 285 340 215 241 239 189 205 250 195 276 258 271 289 285 270 241 247 238
205 204 202 202 196 191 196 200 199 241 202 190 177 174 117 276 305 88 270 323 45 19 308 116 119 345 300 278 260 247 222 238 235 243 206 206 190 172 267 247 346 305 245 165 204 191 208
201 200 198 193 191 191 192 196 193 196 215 171 198 165 108 257 183 188 200 239 282 270 250 278 314 180 261 304 282 274 263 253 254 252 209 220 155 189 264 313 201 241 262 245 235 59 26
197 196 195 192 187 183 186 188 195 161 135 178 184 183 147 218 185 277 348 306 319 303 268 244 254 229 266 327 322 318 297 305 271 133 197 210 165 238 239 203 288 283 300 140 121 76 12
191 191 194 185 181 180 178 189 191 171 129 113 97 68 82 125 244 147 178 229 251 280 326 335 10 58 47 58 308 244 257 277 298 305 11 79 184 171 155 226 249 46 315 310 95 180 15
190 191 185 183 184 179 182 188 195 182 167 132 91 84 81 116 273 271 216 253 353 77 248 291 327 335 91 238 234 230 239 241 266 258 326 25 15 220 237 259 283 341 345 318 262 340 337
189 186 183 185 185 182 182 184 194 199 198 176 138 197 159 185 280 290 0 263 303 268 252 347 324 19 26 254 265 280 280 299 301 346 334 249 214 219 195 231 271 1 34 43 339 323 329
183 182 182 181 179 183 181 186 192 200 204 200 180 207 215 185 279 279 284 285 269 267 282 205 228 180 248 238 255 303 309 337 340 285 351 304 28 286 267 343 53 50 72 19 348 329 321